When you browse on this site, cookies collect data to enhance your experience and personalize the content and advertising you see.
Visit our Privacy Policy to learn more. By continuing to use the site, you agree to this use of cookies and data.

Meteo pe oră la Dziarnowko

Astăzi, 24 Septembrie, Joi

Timp Temperatura Precipitaţii Vânt Presiune Umiditate
00:00 +18°C° 0 mm 3 m/s 745 mmHg 65%
01:00 +17°C° 0 mm 3 m/s 745 mmHg 69%
02:00 +17°C° 0 mm 3 m/s 745 mmHg 72%
03:00 +17°C° 0 mm 3 m/s 745 mmHg 75%
04:00 +17°C° 0 mm 3 m/s 745 mmHg 79%
05:00 +17°C° 0 mm 3 m/s 745 mmHg 77%
06:00 +17°C° 0 mm 4 m/s 744 mmHg 76%
07:00 +18°C° 0 mm 4 m/s 744 mmHg 74%
08:00 +19°C° 0 mm 4 m/s 745 mmHg 70%
09:00 +21°C° 0 mm 5 m/s 745 mmHg 66%
10:00 +22°C° 0 mm 5 m/s 745 mmHg 62%
11:00 +23°C° 0 mm 5 m/s 745 mmHg 61%
12:00 +23°C° 0 mm 5 m/s 745 mmHg 60%
13:00 +25°C° 0 mm 4 m/s 745 mmHg 60%
14:00 +23°C° 0.1 mm 4 m/s 745 mmHg 58%
15:00 +24°C° 0.1 mm 3 m/s 745 mmHg 56%
16:00 +24°C° 0.1 mm 3 m/s 745 mmHg 54%
17:00 +22°C° 0 mm 3 m/s 745 mmHg 58%
18:00 +20°C° 0 mm 2 m/s 745 mmHg 63%
19:00 +19°C° 0 mm 2 m/s 745 mmHg 67%
20:00 +19°C° 0 mm 1 m/s 745 mmHg 70%
21:00 +19°C° 0 mm 1 m/s 745 mmHg 73%
22:00 +18°C° 0 mm 1 m/s 745 mmHg 75%
23:00 +18°C° 0 mm 1 m/s 745 mmHg 76%

Mâine, 25 Septembrie, Vineri

Timp Temperatura Precipitaţii Vânt Presiune Umiditate
00:00 +18°C° 0 mm 1 m/s 745 mmHg 78%
01:00 +16°C° 0 mm 2 m/s 745 mmHg 79%
02:00 +16°C° 0 mm 2 m/s 745 mmHg 80%
03:00 +16°C° 0 mm 2 m/s 744 mmHg 81%
04:00 +15°C° 0 mm 2 m/s 744 mmHg 82%
05:00 +16°C° 0 mm 3 m/s 743 mmHg 81%
06:00 +16°C° 0 mm 3 m/s 743 mmHg 79%
07:00 +17°C° 0 mm 4 m/s 743 mmHg 78%
08:00 +18°C° 0 mm 4 m/s 742 mmHg 74%
09:00 +20°C° 0 mm 5 m/s 742 mmHg 70%
10:00 +22°C° 0 mm 5 m/s 741 mmHg 66%
11:00 +22°C° 0 mm 6 m/s 740 mmHg 62%
12:00 +23°C° 0 mm 7 m/s 740 mmHg 58%
13:00 +24°C° 0 mm 7 m/s 739 mmHg 55%
14:00 +23°C° 0.2 mm 6 m/s 739 mmHg 58%
15:00 +23°C° 0.2 mm 5 m/s 739 mmHg 61%
16:00 +22°C° 0.2 mm 4 m/s 738 mmHg 64%
17:00 +21°C° 0.3 mm 4 m/s 738 mmHg 69%
18:00 +20°C° 0.3 mm 4 m/s 738 mmHg 74%
19:00 +19°C° 0.3 mm 4 m/s 738 mmHg 79%
20:00 +17°C° 0.3 mm 5 m/s 739 mmHg 83%
21:00 +17°C° 0.3 mm 5 m/s 739 mmHg 86%
22:00 +17°C° 0.3 mm 5 m/s 739 mmHg 89%
23:00 +17°C° 0.2 mm 4 m/s 739 mmHg 89%

Poimâine, 26 Septembrie, Sâmbătă

Timp Temperatura Precipitaţii Vânt Presiune Umiditate
00:00 +17°C° 0.2 mm 3 m/s 739 mmHg 90%
01:00 +17°C° 0.2 mm 3 m/s 739 mmHg 90%
02:00 +16°C° 0 mm 2 m/s 739 mmHg 91%
03:00 +16°C° 0 mm 2 m/s 739 mmHg 92%
04:00 +15°C° 0 mm 2 m/s 739 mmHg 94%
05:00 +15°C° 0 mm 2 m/s 739 mmHg 93%
06:00 +16°C° 0 mm 3 m/s 739 mmHg 93%
07:00 +16°C° 0 mm 3 m/s 739 mmHg 93%
08:00 +17°C° 0 mm 3 m/s 739 mmHg 89%
09:00 +18°C° 0 mm 3 m/s 739 mmHg 85%
10:00 +19°C° 0 mm 4 m/s 739 mmHg 81%
11:00 +19°C° 0 mm 4 m/s 739 mmHg 80%
12:00 +20°C° 0 mm 4 m/s 739 mmHg 78%
13:00 +20°C° 0 mm 5 m/s 739 mmHg 76%
14:00 +20°C° 0 mm 5 m/s 739 mmHg 76%
15:00 +21°C° 0 mm 5 m/s 738 mmHg 75%
16:00 +21°C° 0 mm 5 m/s 738 mmHg 74%
17:00 +20°C° 0.1 mm 5 m/s 738 mmHg 75%
18:00 +20°C° 0.1 mm 5 m/s 738 mmHg 77%
19:00 +20°C° 0.1 mm 5 m/s 738 mmHg 78%
20:00 +20°C° 0.1 mm 5 m/s 739 mmHg 77%
21:00 +20°C° 0.1 mm 5 m/s 739 mmHg 77%
22:00 +20°C° 0.1 mm 6 m/s 739 mmHg 76%
23:00 +20°C° 0.1 mm 5 m/s 739 mmHg 74%

27 Septembrie, Duminică

Timp Temperatura Precipitaţii Vânt Presiune Umiditate
00:00 +19°C° 0.1 mm 5 m/s 739 mmHg 72%
01:00 +19°C° 0.1 mm 5 m/s 739 mmHg 69%
02:00 +19°C° 0 mm 6 m/s 739 mmHg 68%
03:00 +19°C° 0 mm 6 m/s 739 mmHg 67%
04:00 +18°C° 0 mm 7 m/s 739 mmHg 65%
05:00 +18°C° 0 mm 7 m/s 739 mmHg 64%
06:00 +18°C° 0 mm 7 m/s 739 mmHg 62%
07:00 +18°C° 0 mm 7 m/s 739 mmHg 61%
08:00 +20°C° 0 mm 8 m/s 739 mmHg 58%
09:00 +21°C° 0 mm 8 m/s 739 mmHg 54%
10:00 +22°C° 0 mm 8 m/s 739 mmHg 51%
11:00 +22°C° 0 mm 8 m/s 740 mmHg 51%
12:00 +22°C° 0 mm 8 m/s 740 mmHg 52%
13:00 +22°C° 0 mm 8 m/s 740 mmHg 52%
14:00 +22°C° 0 mm 7 m/s 740 mmHg 52%
15:00 +22°C° 0 mm 7 m/s 740 mmHg 52%
16:00 +22°C° 0 mm 6 m/s 740 mmHg 52%
17:00 +21°C° 0 mm 6 m/s 740 mmHg 56%
18:00 +20°C° 0 mm 7 m/s 740 mmHg 59%
19:00 +20°C° 0 mm 7 m/s 741 mmHg 63%
20:00 +19°C° 0 mm 6 m/s 741 mmHg 64%
21:00 +19°C° 0 mm 6 m/s 741 mmHg 65%
22:00 +19°C° 0 mm 6 m/s 741 mmHg 66%
23:00 +17°C° 0 mm 5 m/s 742 mmHg 69%

28 Septembrie, Luni

Timp Temperatura Precipitaţii Vânt Presiune Umiditate
00:00 +17°C° 0 mm 5 m/s 742 mmHg 73%
01:00 +16°C° 0 mm 5 m/s 742 mmHg 77%
02:00 +15°C° 0.1 mm 5 m/s 742 mmHg 78%
03:00 +15°C° 0.1 mm 5 m/s 742 mmHg 80%
04:00 +14°C° 0.1 mm 5 m/s 742 mmHg 81%
05:00 +13°C° 0 mm 5 m/s 743 mmHg 80%
06:00 +13°C° 0 mm 5 m/s 743 mmHg 78%
07:00 +13°C° 0 mm 4 m/s 744 mmHg 76%
08:00 +13°C° 0 mm 4 m/s 744 mmHg 74%
09:00 +13°C° 0 mm 5 m/s 745 mmHg 72%
10:00 +13°C° 0 mm 5 m/s 745 mmHg 70%
11:00 +14°C° 0 mm 5 m/s 745 mmHg 67%
12:00 +14°C° 0 mm 4 m/s 746 mmHg 64%
13:00 +15°C° 0 mm 4 m/s 746 mmHg 61%
14:00 +15°C° 0 mm 4 m/s 746 mmHg 60%
15:00 +15°C° 0 mm 4 m/s 746 mmHg 59%
16:00 +15°C° 0 mm 4 m/s 746 mmHg 58%
17:00 +13°C° 0 mm 4 m/s 747 mmHg 63%
18:00 +12°C° 0 mm 3 m/s 747 mmHg 68%
19:00 +11°C° 0 mm 3 m/s 747 mmHg 73%
20:00 +11°C° 0 mm 3 m/s 747 mmHg 75%
21:00 +10°C° 0 mm 3 m/s 748 mmHg 77%
22:00 +10°C° 0 mm 3 m/s 748 mmHg 79%
23:00 +9°C° 0 mm 3 m/s 748 mmHg 81%

29 Septembrie, Marţi

Timp Temperatura Precipitaţii Vânt Presiune Umiditate
00:00 +9°C° 0 mm 3 m/s 748 mmHg 82%
01:00 +9°C° 0 mm 2 m/s 748 mmHg 83%
02:00 +9°C° 0 mm 2 m/s 748 mmHg 82%
03:00 +9°C° 0 mm 2 m/s 748 mmHg 81%
04:00 +9°C° 0 mm 2 m/s 748 mmHg 80%
05:00 +9°C° 0 mm 2 m/s 747 mmHg 78%
06:00 +10°C° 0 mm 3 m/s 747 mmHg 77%
07:00 +10°C° 0 mm 3 m/s 747 mmHg 75%
08:00 +11°C° 0.1 mm 3 m/s 747 mmHg 74%
09:00 +12°C° 0.1 mm 3 m/s 747 mmHg 73%
10:00 +13°C° 0.1 mm 3 m/s 747 mmHg 73%
11:00 +12°C° 0.4 mm 3 m/s 747 mmHg 78%
12:00 +11°C° 0.4 mm 3 m/s 747 mmHg 84%
13:00 +11°C° 0.4 mm 3 m/s 747 mmHg 90%
14:00 +12°C° 0.7 mm 2 m/s 747 mmHg 92%
15:00 +12°C° 0.7 mm 2 m/s 747 mmHg 93%
16:00 +12°C° 0.7 mm 2 m/s 747 mmHg 95%
17:00 +12°C° 0.7 mm 2 m/s 747 mmHg 95%
18:00 +12°C° 0.7 mm 2 m/s 747 mmHg 96%
19:00 +12°C° 0.7 mm 2 m/s 748 mmHg 96%
20:00 +12°C° 0.5 mm 2 m/s 748 mmHg 97%
21:00 +12°C° 0.5 mm 1 m/s 748 mmHg 97%
22:00 +12°C° 0.5 mm 1 m/s 748 mmHg 97%
23:00 +12°C° 0 mm 1 m/s 748 mmHg 97%
Arată mai mult